Wind_Speed
14 14 14 16 16 18 18 18 10 3 2 4 2 3 3 3 3 2 2 0 4 6 8 12 12 13 15 16 16 17 16 12 11 11 11 13 14 16
8 8 10 9 8 7 7 8 7 8 1 2 2 4 4 3 2 0 1 2 6 9 11 12 12 12 10 9 10 10 9 11 12 12 12 12 14 16
7 6 6 7 8 7 6 3 2 3 1 2 3 4 3 1 2 4 6 7 9 12 12 10 7 5 7 9 10 12 11 11 12 13 14 13 14 16
7 7 8 7 7 6 5 5 4 4 3 3 3 2 1 2 4 5 7 7 8 9 10 9 6 7 8 11 13 13 13 12 13 13 13 13 15 16
6 5 7 6 6 6 7 7 7 5 3 4 3 2 1 3 4 5 8 8 8 8 8 8 6 9 12 14 12 11 11 13 12 13 15 16 15 15
4 5 6 7 8 8 7 6 6 7 8 8 6 2 2 2 5 8 7 7 9 7 7 8 10 12 14 13 11 11 12 12 14 15 15 15 13 15
5 6 8 8 8 5 5 6 6 6 7 6 4 3 3 4 6 7 7 13 12 7 9 13 11 12 10 9 10 9 14 15 14 13 12 14 16 17
3 4 3 5 7 9 9 5 5 5 5 4 3 4 3 4 5 6 8 9 3 5 16 18 8 8 10 11 11 16 16 13 10 11 15 17 19 19
4 3 2 2 3 3 7 8 8 7 7 5 5 6 4 4 5 7 8 8 8 15 14 7 8 10 13 16 16 14 11 8 11 17 16 16 18 23
5 5 4 3 2 3 2 4 5 5 6 6 6 3 2 2 4 5 7 10 12 8 8 4 10 15 23 20 11 10 6 13 16 19 18 19 23 24
7 7 6 6 4 4 5 4 3 2 2 3 2 1 1 3 4 5 5 7 4 3 7 6 8 19 17 12 4 5 16 14 20 19 22 23 24 23
10 9 11 7 9 6 4 4 4 4 2 1 3 3 2 4 6 4 4 4 4 5 3 10 11 11 9 7 5 20 16 19 17 23 22 21 20 21
12 11 10 11 8 7 5 4 4 4 4 2 3 3 2 2 2 4 4 3 4 6 7 12 9 12 6 12 20 18 17 19 26 21 20 20 20 22
14 13 12 13 11 9 7 6 5 6 5 4 4 4 4 4 5 6 7 7 8 12 15 13 10 10 13 17 13 23 28 25 21 21 19 21 21 21
17 14 13 13 13 10 10 9 7 8 7 6 6 5 6 7 7 5 6 8 11 12 10 10 14 17 16 15 16 23 24 22 21 15 25 23 25 24
18 16 15 14 14 11 10 10 11 12 9 8 6 5 6 5 5 6 6 8 11 7 9 11 13 13 18 19 19 24 22 13 24 23 26 26 24 23
19 16 15 15 15 14 13 11 11 12 11 9 8 6 6 6 6 6 5 7 7 11 14 12 11 13 18 22 24 19 21 20 21 25 26 26 26 23
20 18 18 18 16 16 15 13 13 12 11 10 9 8 7 7 7 6 6 7 10 12 14 14 14 15 15 12 14 21 20 20 23 26 24 23 25 27
24 20 18 19 18 18 16 15 14 13 11 13 12 10 10 10 8 7 6 7 9 11 12 13 12 12 6 9 16 11 13 29 27 24 21 22 23 31
24 22 20 19 19 20 19 17 16 14 14 13 12 11 11 12 9 8 8 8 8 11 13 11 10 10 8 7 13 29 21 23 22 22 24 26 28 27
26 23 20 21 20 21 20 19 19 18 16 14 13 13 12 12 11 9 9 9 11 11 12 13 13 14 16 17 11 18 23 21 21 24 25 22 20 21
23 23 22 23 21 23 21 20 19 17 16 15 13 13 12 12 12 9 9 9 10 12 13 14 14 13 13 12 14 19 23 25 24 19 18 18 18 6
23 24 25 24 25 23 23 21 19 18 16 14 13 14 14 14 11 9 10 11 12 13 12 14 14 13 13 15 18 18 21 22 21 21 21 21 21 23
Wind_Direction
307 309 303 302 300 291 286 274 261 271 206 106 140 133 164 183 172 159 170 259 276 282 292 298 296 305 307 306 297 293 293 298 290 295 303 308 303 299
309 324 329 319 318 323 310 312 313 282 213 40 102 158 165 146 104 165 313 321 305 307 304 295 299 302 307 313 317 314 309 311 308 301 296 296 291 295
336 339 333 342 345 339 347 342 317 301 302 98 118 161 151 175 325 336 333 329 316 312 319 318 323 322 316 317 319 315 311 304 303 304 304 300 297 296
343 347 353 350 348 357 5 14 14 2 348 133 147 150 48 355 345 335 339 332 332 333 321 313 301 301 315 311 309 305 305 302 303 305 303 299 294 294
-0 3 6 10 20 18 25 25 24 29 63 115 114 100 32 2 336 339 341 346 342 323 315 312 305 303 303 306 301 305 299 305 305 301 302 297 293 295
37 38 29 35 39 27 30 33 36 52 57 69 68 73 53 13 15 16 9 345 333 330 336 334 308 309 309 301 310 299 305 311 307 308 302 300 296 293
69 64 64 64 52 59 51 38 44 71 75 83 85 97 59 31 22 359 344 342 345 339 347 328 318 305 309 300 302 307 312 310 308 306 301 298 300 301
134 114 87 53 55 68 68 75 95 50 61 71 87 81 62 31 10 357 352 360 348 10 341 317 329 319 333 326 311 309 309 309 306 311 306 302 301 300
179 173 143 106 94 74 67 59 70 89 103 73 78 54 49 18 356 353 354 341 315 311 329 310 338 331 323 309 309 311 312 304 310 316 312 309 306 305
204 192 191 178 180 133 125 93 84 86 90 83 84 70 56 32 6 348 334 322 320 311 332 291 325 318 315 319 307 302 311 309 312 317 312 304 305 306
209 203 198 182 209 177 159 152 143 73 38 59 86 120 1 319 334 351 357 348 321 338 332 319 314 321 316 321 301 294 321 316 316 317 315 309 308 310
219 215 209 199 214 182 178 192 191 190 190 321 342 0 42 337 349 350 334 335 327 289 331 343 328 358 325 325 299 311 317 317 314 314 311 311 311 311
215 218 221 216 208 211 191 205 215 199 231 217 252 252 272 294 304 303 304 288 296 273 295 339 302 325 287 306 314 314 323 316 315 316 312 310 310 308
224 224 219 223 211 216 217 219 239 211 204 225 244 248 253 276 278 291 293 282 263 268 289 284 275 290 294 300 299 314 318 317 315 313 315 314 310 309
221 219 217 224 211 217 224 222 221 221 224 231 241 236 243 257 287 313 315 321 318 316 308 293 272 281 289 283 288 299 309 311 313 316 318 317 314 313
225 224 218 217 216 216 222 229 228 221 225 233 238 231 266 292 285 287 315 323 327 329 312 306 299 291 289 287 286 292 297 298 304 315 316 313 311 308
209 216 209 201 202 216 223 220 216 219 225 231 230 238 255 263 268 275 295 316 296 303 308 305 298 292 288 288 284 283 289 295 309 314 316 311 312 309
193 196 200 203 204 205 206 209 217 218 219 222 231 235 243 254 261 278 282 288 296 302 303 311 316 323 323 319 285 279 285 293 306 311 312 309 311 313
202 204 206 204 206 208 210 206 205 218 222 224 227 230 241 244 245 258 268 273 288 298 299 305 312 315 311 315 298 308 323 306 306 307 312 311 302 308
209 208 205 207 206 208 208 208 212 210 216 219 222 224 239 246 240 242 252 265 284 295 298 303 306 310 311 301 300 300 323 307 300 301 309 308 304 308
210 210 205 204 208 215 215 217 220 216 218 213 219 229 226 231 239 248 258 268 278 285 292 299 301 305 307 310 290 299 312 312 309 303 300 301 305 308
206 203 200 206 217 219 222 220 217 211 210 215 220 233 230 230 236 243 255 272 279 285 293 301 310 314 312 300 294 298 310 316 319 318 307 298 291 299
202 197 201 214 217 223 220 218 217 218 216 216 222 227 228 230 235 247 257 266 273 284 292 303 310 313 307 300 302 304 309 318 321 322 319 316 313 301
Height
742 739 737 735 733 732 731 731 729 726 727 730 732 733 734 735 736 737 738 737 738 738 738 738 741 741 741 741 741 739 740 737 738 738 737 741 742 742
740 738 736 734 732 730 729 728 727 726 726 731 732 732 734 734 735 736 738 738 738 738 737 737 739 737 737 737 740 738 736 736 736 737 736 735 737 736
739 737 735 734 733 731 730 728 727 728 727 732 732 733 734 735 736 737 737 736 737 735 737 736 736 736 736 737 735 736 735 734 733 733 733 733 733 733
739 738 736 734 732 732 730 730 730 730 729 729 732 734 734 735 736 736 735 736 736 735 735 734 734 735 734 735 734 734 732 730 730 729 730 729 731 728
740 738 737 736 734 733 732 732 731 730 729 729 733 734 734 735 735 735 734 735 735 735 734 734 732 732 733 732 732 730 729 729 728 728 725 725 726 724
739 738 738 737 736 736 735 734 734 733 732 733 734 735 736 736 736 735 735 736 735 735 732 732 733 731 731 731 727 728 726 727 725 722 724 723 720 721
740 739 738 737 736 736 737 736 735 734 734 734 735 736 737 738 738 738 738 736 735 734 734 733 732 731 730 729 728 726 724 724 722 721 721 719 718 716
740 740 739 739 737 736 736 736 736 737 737 737 737 738 739 740 740 740 739 738 738 736 734 732 731 730 728 726 725 724 722 720 719 719 717 716 714 713
739 739 739 738 739 738 737 737 736 737 738 739 739 740 740 741 741 741 741 740 739 736 734 729 729 727 726 724 722 721 719 719 718 716 714 712 710 708
739 738 739 739 738 739 740 739 739 738 738 738 739 741 741 741 741 741 741 740 738 736 734 732 728 726 724 721 720 719 719 718 716 713 710 708 706 702
736 737 738 737 738 739 738 739 741 741 741 740 739 738 739 740 740 740 740 741 739 738 737 736 730 725 720 717 719 719 718 715 712 709 706 703 699 695
735 735 735 737 736 736 739 739 739 739 740 741 741 740 739 740 740 740 740 741 741 737 737 737 732 729 722 716 716 716 714 712 709 706 702 699 695 691
731 732 733 734 735 736 736 738 739 739 739 740 741 742 741 740 740 740 739 739 739 739 737 736 732 731 729 722 714 711 711 708 705 702 699 695 692 689
728 729 730 730 732 735 735 736 737 738 738 739 739 740 740 739 738 737 737 737 736 735 733 734 732 731 727 722 716 708 707 704 702 698 695 692 688 684
722 723 727 728 729 731 734 734 735 735 736 737 737 737 737 737 737 736 735 734 733 731 730 730 730 728 726 721 717 711 708 700 698 695 691 687 683 678
719 721 721 723 726 728 731 730 732 733 733 734 735 735 735 735 735 734 732 732 730 729 729 728 727 725 721 717 714 709 706 703 694 692 687 683 679 675
713 717 719 720 721 723 725 727 729 729 729 731 732 733 733 734 733 733 731 730 730 727 727 726 724 721 717 713 707 705 701 697 694 689 685 678 674 670
707 710 712 715 715 717 718 720 724 726 727 729 730 730 731 731 731 732 731 730 729 727 725 723 720 717 712 706 703 699 697 695 690 686 682 676 669 665
698 702 705 708 710 712 713 715 718 721 723 724 726 727 729 729 729 729 728 728 727 725 723 721 718 716 711 707 701 698 696 692 686 682 678 674 667 659
690 692 696 701 704 706 707 709 713 714 717 719 722 722 727 729 727 724 725 724 724 722 719 717 715 713 711 708 702 694 693 688 684 679 674 668 663 655
682 685 689 694 698 700 702 704 707 709 711 713 717 719 718 723 724 723 723 722 721 720 716 714 713 711 707 704 699 692 688 687 683 678 672 666 659 650
674 678 682 687 691 696 698 700 703 706 708 710 713 716 716 718 719 718 719 720 719 718 715 712 710 707 705 701 697 691 685 681 677 673 670 667 661 653
667 671 676 680 685 688 692 696 698 701 703 707 710 712 713 715 716 716 716 716 716 715 713 710 708 705 702 698 694 689 684 679 674 669 665 662 657 652